Deming, NM

7:50 AM MST on February 06, 2016 (GMT -0700)
Deming Municipal

Weather History for KDMN - March, 2012

Change the Weather History Date:

Wednesday, March 21, 2012

  Actual Average Record
Temperature  
Mean Temperature 47 °F 52 °F  
Max Temperature 67 °F 69 °F 86 °F (1997)
Min Temperature 26 °F 36 °F 24 °F (1955)
Degree Days  
Heating Degree Days 18    
Moisture  
Dew Point 15 °F    
Average Humidity 34    
Maximum Humidity 57    
Minimum Humidity 11    
Precipitation  
Precipitation 0.00 in 0.01 in 0.17 in (1991)
Month to date precipitation 0.04 0.31  
Year to date precipitation 0.64 1.51  
Sea Level Pressure  
Sea Level Pressure 29.93 in    
Wind  
Wind Speed 9 mph (WSW)    
Max Wind Speed 22 mph    
Max Gust Speed 26 mph    
Visibility 10 miles    
Events      
T = Trace of Precipitation, MM = Missing Value Source: NWS Daily Summary

Daily Weather History Graph

Daily Weather History Graph

Search for Another Location

Airport or City:

Trip Planner

Search our weather history database for the weather conditions in past years. The results will help you decide how hot, cold, wet, or windy it might be!

Date:

Astronomy

Mar. 21, 2012 Rise Set
Actual Time 7:12 AM MDT 7:23 PM MDT
Civil Twilight 6:48 AM MDT 7:48 PM MDT
Nautical Twilight 6:19 AM MDT 8:16 PM MDT
Astronomical Twilight 5:50 AM MDT 8:45 PM MDT
Moon 6:24 AM MDT (3/21) 6:52 PM MDT (3/21)
Length of Visible Light 12h 59m
Length of Day
12h 10m
Waning Crescent, 1% of the Moon is Illuminated
Mar 21
Waning Crescent
Mar 22
New
Mar 30
First Quarter
Apr 6
Full
Apr 13
Last Quarter

Hourly Weather History & Observations

Time (MDT) Temp. Windchill Dew Point Humidity Pressure Visibility Wind Dir Wind Speed Gust Speed Precip Events Conditions
12:53 AM 37.0 °F 31.0 °F 18.0 °F 46% 29.97 in 10.0 mi West 8.1 mph - N/A   Clear
1:53 AM 34.0 °F 28.0 °F 17.1 °F 50% 29.98 in 10.0 mi SSW 6.9 mph - N/A   Clear
2:53 AM 32.0 °F 25.6 °F 16.0 °F 52% 29.98 in 10.0 mi SW 6.9 mph - N/A   Clear
3:53 AM 30.0 °F 24.1 °F 15.1 °F 54% 29.97 in 10.0 mi SW 5.8 mph - N/A   Clear
4:53 AM 28.9 °F 21.9 °F 14.0 °F 54% 29.97 in 10.0 mi South 6.9 mph - N/A   Clear
5:53 AM 28.4 °F 24.6 °F 14.0 °F 55% 30.04 in 10.0 mi WSW 3.5 mph - N/A   Clear
6:53 AM 27.0 °F 20.5 °F 14.0 °F 58% 30.02 in 10.0 mi SSW 5.8 mph - N/A   Clear
7:53 AM 30.0 °F 25.2 °F 16.0 °F 56% 30.03 in 10.0 mi SSW 4.6 mph - N/A   Clear
8:53 AM 37.9 °F 33.5 °F 18.0 °F 45% 30.02 in 10.0 mi SW 5.8 mph - N/A   Clear
9:53 AM 46.9 °F - 15.1 °F 28% 30.00 in 10.0 mi SW 6.9 mph - N/A   Clear
10:53 AM 50.0 °F - 15.1 °F 25% 29.99 in 10.0 mi WSW 8.1 mph - N/A   Clear
11:53 AM 55.0 °F - 12.0 °F 18% 29.96 in 10.0 mi South 6.9 mph - N/A   Clear
12:53 PM 55.9 °F - 8.1 °F 15% 29.94 in 10.0 mi Calm Calm - N/A   Clear
1:53 PM 62.1 °F - 7.0 °F 11% 29.89 in 10.0 mi Variable 5.8 mph - N/A   Clear
2:53 PM 63.0 °F - 12.0 °F 14% 29.87 in 10.0 mi West 13.8 mph 17.3 mph N/A   Clear
3:53 PM 64.9 °F - 14.0 °F 14% 29.85 in 10.0 mi West 10.4 mph 19.6 mph N/A   Clear
4:53 PM 66.0 °F - 12.9 °F 13% 29.82 in 10.0 mi West 12.7 mph - N/A   Clear
5:53 PM 66.0 °F - 16.0 °F 15% 29.81 in 10.0 mi West 19.6 mph 24.2 mph N/A   Clear
6:53 PM 62.1 °F - 17.1 °F 18% 29.84 in 10.0 mi WSW 18.4 mph 26.5 mph N/A   Clear
7:53 PM 57.9 °F - 17.1 °F 20% 29.86 in 10.0 mi WSW 10.4 mph - N/A   Clear
8:53 PM 57.9 °F - 17.1 °F 20% 29.86 in 10.0 mi West 18.4 mph - N/A   Clear
9:53 PM 53.1 °F - 19.0 °F 26% 29.88 in 10.0 mi West 11.5 mph - N/A   Clear
10:53 PM 51.1 °F - 19.9 °F 29% 29.89 in 10.0 mi WNW 9.2 mph - N/A   Clear
11:53 PM 48.0 °F - 19.9 °F 33% 29.89 in 10.0 mi SSW 8.1 mph - N/A   Clear